| time (UTC) | temp F | wind direction | speed knots | gust knots | rain 1hr in | rain 24hr in | rain mn in | humidity % | barometer mb |
| 20260503013248 | 56 | 288 | 0.9 | 1.7 | 0.00 | 0.00 | 0.00 | 50 | 1019.7 |
| 20260503012246 | 56 | 298 | 0.9 | 1.7 | 0.00 | 0.00 | 0.00 | 51 | 1019.7 |
| 20260503011246 | 57 | 280 | 1.7 | 2.6 | 0.00 | 0.00 | 0.00 | 50 | 1019.5 |
| 20260503010244 | 58 | 281 | 1.7 | 3.5 | 0.00 | 0.00 | 0.00 | 49 | 1019.4 |
| 20260503005244 | 59 | 282 | 1.7 | 3.5 | 0.00 | 0.00 | 0.00 | 46 | 1019.4 |
| 20260503004246 | 60 | 293 | 1.7 | 3.5 | 0.00 | 0.00 | 0.00 | 44 | 1019.4 |
| 20260503003245 | 61 | 298 | 2.6 | 5.2 | 0.00 | 0.00 | 0.00 | 42 | 1019.4 |
| 20260503002244 | 62 | 304 | 2.6 | 7.0 | 0.00 | 0.00 | 0.00 | 40 | 1019.4 |
| 20260503001717 | 62 | 314 | 2.6 | 6.1 | 0.00 | 0.00 | 0.00 | 40 | 1019.5 |
| 20260503000237 | 62 | 280 | 3.5 | 7.0 | 0.00 | 0.00 | 0.00 | 41 | 1019.5 |
| 20260502235237 | 62 | 277 | 3.5 | 7.0 | 0.00 | 0.00 | 0.00 | 41 | 1019.5 |
| 20260502234237 | 62 | 329 | 4.3 | 7.8 | 0.00 | 0.00 | 0.00 | 41 | 1019.5 |
| 20260502233238 | 63 | 319 | 5.2 | 8.7 | 0.00 | 0.00 | 0.00 | 39 | 1019.5 |
| 20260502232235 | 63 | 309 | 5.2 | 8.7 | 0.00 | 0.00 | 0.00 | 40 | 1019.6 |
| 20260502231232 | 63 | 320 | 5.2 | 9.6 | 0.00 | 0.00 | 0.00 | 39 | 1019.5 |
| 20260502230231 | 63 | 306 | 5.2 | 9.6 | 0.00 | 0.00 | 0.00 | 38 | 1019.5 |
| 20260502225717 | 64 | 299 | 3.5 | 7.8 | 0.00 | 0.00 | 0.00 | 42 | 1019.4 |
| 20260502224229 | 64 | 336 | 5.2 | 9.6 | 0.00 | 0.00 | 0.00 | 39 | 1019.4 |
| 20260502223233 | 64 | 346 | 6.1 | 11.3 | 0.00 | 0.00 | 0.00 | 40 | 1019.6 |
| 20260502222231 | 64 | 335 | 3.5 | 8.7 | 0.00 | 0.00 | 0.00 | 39 | 1019.4 |
| 20260502221230 | 64 | 277 | 5.2 | 9.6 | 0.00 | 0.00 | 0.00 | 40 | 1019.3 |
| 20260502220231 | 64 | 298 | 5.2 | 9.6 | 0.00 | 0.00 | 0.00 | 38 | 1019.4 |
| 20260502215230 | 64 | 288 | 6.1 | 10.4 | 0.00 | 0.00 | 0.00 | 35 | 1019.5 |
| 20260502214230 | 64 | 299 | 7.0 | 12.2 | 0.00 | 0.00 | 0.00 | 38 | 1019.5 |
| 20260502213715 | 64 | 328 | 6.1 | 11.3 | 0.00 | 0.00 | 0.00 | 39 | 1019.7 |
| 20260502212229 | 64 | 301 | 6.1 | 9.6 | 0.00 | 0.00 | 0.00 | 36 | 1019.7 |
| 20260502211229 | 65 | 289 | 7.0 | 14.8 | 0.00 | 0.00 | 0.00 | 37 | 1019.8 |
| 20260502210229 | 65 | 280 | 4.3 | 11.3 | 0.00 | 0.00 | 0.00 | 40 | 1019.8 |
| 20260502205706 | 65 | 303 | 6.1 | 11.3 | 0.00 | 0.00 | 0.00 | 38 | 1020.0 |
| 20260502204229 | 65 | 333 | 7.0 | 13.9 | 0.00 | 0.00 | 0.00 | 40 | 1020.2 |
| 20260502203229 | 65 | 288 | 6.1 | 12.2 | 0.00 | 0.00 | 0.00 | 38 | 1020.2 |
| 20260502202229 | 65 | 294 | 7.8 | 13.0 | 0.00 | 0.00 | 0.00 | 40 | 1020.2 |
| 20260502201227 | 65 | 329 | 6.1 | 11.3 | 0.00 | 0.00 | 0.00 | 39 | 1020.3 |
| 20260502200228 | 65 | 284 | 5.2 | 10.4 | 0.00 | 0.00 | 0.00 | 38 | 1020.3 |
| 20260502195225 | 65 | 321 | 7.0 | 12.2 | 0.00 | 0.00 | 0.00 | 39 | 1020.3 |
| 20260502194658 | 65 | 333 | 7.0 | 11.3 | 0.00 | 0.00 | 0.00 | 37 | 1020.4 |
| 20260502193223 | 65 | 321 | 6.1 | 12.2 | 0.00 | 0.00 | 0.00 | 39 | 1020.4 |
| 20260502192224 | 65 | 278 | 7.0 | 13.0 | 0.00 | 0.00 | 0.00 | 38 | 1020.5 |
| 20260502191223 | 65 | 298 | 6.1 | 14.8 | 0.00 | 0.00 | 0.00 | 36 | 1020.5 |
| 20260502190225 | 65 | 321 | 7.8 | 13.9 | 0.00 | 0.00 | 0.00 | 39 | 1020.5 |
| 20260502185223 | 64 | 308 | 7.8 | 15.6 | 0.00 | 0.00 | 0.00 | 37 | 1020.4 |
| 20260502184223 | 64 | 275 | 7.0 | 13.9 | 0.00 | 0.00 | 0.00 | 40 | 1020.5 |
| 20260502183223 | 64 | 315 | 7.0 | 12.2 | 0.00 | 0.00 | 0.00 | 44 | 1020.5 |
| 20260502182701 | 65 | 318 | 7.0 | 14.8 | 0.00 | 0.00 | 0.00 | 41 | 1020.6 |
| 20260502181223 | 65 | 307 | 5.2 | 11.3 | 0.00 | 0.00 | 0.00 | 42 | 1020.6 |
| 20260502180707 | 64 | 297 | 6.1 | 12.2 | 0.00 | 0.00 | 0.00 | 44 | 1020.7 |
| 20260502170223 | 62 | 5 | 5.2 | 11.3 | 0.00 | 0.00 | 0.00 | 43 | 1021.4 |
| 20260502164223 | 62 | 319 | 5.2 | 10.4 | 0.00 | 0.00 | 0.00 | 43 | 1021.5 |
| 20260502163222 | 62 | 355 | 4.3 | 10.4 | 0.00 | 0.00 | 0.00 | 46 | 1021.5 |
| 20260502162224 | 61 | 334 | 5.2 | 12.2 | 0.00 | 0.00 | 0.00 | 48 | 1021.5 |
| 20260502161224 | 61 | 42 | 6.1 | 10.4 | 0.00 | 0.00 | 0.00 | 48 | 1021.4 |
| 20260502160224 | 61 | 309 | 6.1 | 10.4 | 0.00 | 0.00 | 0.00 | 47 | 1021.5 |
| 20260502152222 | 59 | 355 | 4.3 | 9.6 | 0.00 | 0.00 | 0.00 | 46 | 1021.1 |
| 20260502151223 | 58 | 5 | 5.2 | 9.6 | 0.00 | 0.00 | 0.00 | 48 | 1021.2 |
| 20260502150225 | 58 | 342 | 5.2 | 9.6 | 0.00 | 0.00 | 0.00 | 49 | 1021.4 |
| 20260502130215 | 47 | 161 | 0.0 | 0.0 | 0.00 | 0.00 | 0.00 | 90 | 1020.6 |
| 20260502123700 | 46 | 240 | 0.0 | 0.9 | 0.00 | 0.00 | 0.00 | 92 | 1020.5 |
| 20260502122213 | 45 | 240 | 0.0 | 0.0 | 0.00 | 0.00 | 0.00 | 92 | 1020.3 |
| 20260502121212 | 45 | 240 | 0.0 | 0.0 | 0.00 | 0.00 | 0.00 | 93 | 1020.2 |
| 20260502120648 | 44 | 240 | 0.0 | 0.0 | 0.00 | 0.00 | 0.00 | 93 | 1020.2 |
| 20260502115210 | 44 | 240 | 0.0 | 0.9 | 0.00 | 0.00 | 0.00 | 93 | 1020.0 |
| 20260502114212 | 44 | 259 | 0.0 | 0.0 | 0.00 | 0.00 | 0.00 | 93 | 1019.9 |
| 20260502113210 | 43 | 311 | 0.0 | 0.9 | 0.00 | 0.00 | 0.00 | 93 | 1019.8 |
| 20260502112647 | 43 | 311 | 0.0 | 0.0 | 0.00 | 0.00 | 0.00 | 93 | 1019.7 |
| 20260502111211 | 42 | 311 | 0.0 | 0.9 | 0.00 | 0.00 | 0.00 | 93 | 1019.6 |
| 20260502110212 | 42 | 343 | 0.0 | 0.9 | 0.00 | 0.00 | 0.00 | 93 | 1019.5 |
| 20260502105208 | 42 | 344 | 0.0 | 0.9 | 0.00 | 0.00 | 0.00 | 93 | 1019.4 |
| 20260502104209 | 42 | 13 | 0.0 | 1.7 | 0.00 | 0.00 | 0.00 | 93 | 1019.3 |
| 20260502102209 | 42 | 294 | 0.0 | 0.0 | 0.00 | 0.00 | 0.00 | 93 | 1019.2 |
| 20260502101211 | 42 | 294 | 0.0 | 0.0 | 0.00 | 0.00 | 0.00 | 92 | 1019.1 |
| 20260502100652 | 42 | 294 | 0.0 | 0.0 | 0.00 | 0.00 | 0.00 | 92 | 1019.1 |
| 20260502090202 | 42 | 326 | 0.0 | 0.0 | 0.00 | 0.00 | 0.00 | 93 | 1019.0 |
| 20260502070158 | 43 | 326 | 0.0 | 0.0 | 0.00 | 0.00 | 0.00 | 88 | 1019.0 |
| 20260502065155 | 43 | 326 | 0.0 | 0.0 | 0.00 | 0.00 | 0.00 | 87 | 1019.0 |
| 20260502064157 | 44 | 326 | 0.0 | 0.0 | 0.00 | 0.00 | 0.00 | 87 | 1018.9 |
| 20260502062155 | 44 | 326 | 0.0 | 0.0 | 0.00 | 0.00 | 0.00 | 84 | 1019.0 |
| 20260502061157 | 44 | 326 | 0.0 | 0.0 | 0.00 | 0.00 | 0.00 | 82 | 1019.0 |
| 20260502060627 | 45 | 326 | 0.0 | 0.0 | 0.00 | 0.00 | 0.00 | 82 | 1019.0 |
| 20260502055148 | 46 | 326 | 0.0 | 0.0 | 0.00 | 0.00 | 0.00 | 82 | 1018.9 |
| 20260502054627 | 46 | 326 | 0.0 | 0.0 | 0.00 | 0.00 | 0.00 | 82 | 1018.9 |
| 20260502053147 | 45 | 326 | 0.0 | 0.0 | 0.00 | 0.00 | 0.00 | 84 | 1018.9 |
| 20260502052148 | 45 | 326 | 0.0 | 0.0 | 0.00 | 0.00 | 0.00 | 82 | 1019.1 |
| 20260502051148 | 45 | 326 | 0.0 | 0.0 | 0.00 | 0.00 | 0.00 | 84 | 1019.2 |
| 20260502050149 | 46 | 326 | 0.0 | 0.0 | 0.00 | 0.00 | 0.00 | 82 | 1019.2 |
| 20260502045146 | 46 | 326 | 0.0 | 0.0 | 0.00 | 0.00 | 0.00 | 80 | 1019.1 |
| 20260502044144 | 46 | 326 | 0.0 | 0.0 | 0.00 | 0.00 | 0.00 | 80 | 1019.2 |
| 20260502043146 | 46 | 326 | 0.0 | 0.0 | 0.00 | 0.00 | 0.00 | 78 | 1019.0 |
| 20260502042141 | 47 | 326 | 0.0 | 0.0 | 0.00 | 0.00 | 0.00 | 77 | 1018.9 |
| 20260502041142 | 47 | 326 | 0.0 | 0.0 | 0.00 | 0.00 | 0.00 | 77 | 1019.0 |
| 20260502040137 | 48 | 326 | 0.0 | 0.0 | 0.00 | 0.00 | 0.00 | 75 | 1019.1 |
| 20260502035138 | 49 | 326 | 0.0 | 0.0 | 0.00 | 0.00 | 0.00 | 73 | 1019.0 |
| 20260502034612 | 49 | 326 | 0.0 | 0.0 | 0.00 | 0.00 | 0.00 | 71 | 1019.1 |
| 20260502033609 | 49 | 326 | 0.0 | 0.0 | 0.00 | 0.00 | 0.00 | 70 | 1019.0 |
| 20260502030129 | 51 | 326 | 0.0 | 0.0 | 0.00 | 0.00 | 0.00 | 66 | 1019.0 |
| 20260502025131 | 51 | 326 | 0.0 | 0.0 | 0.00 | 0.00 | 0.00 | 62 | 1018.9 |
| 20260502024134 | 52 | 326 | 0.0 | 0.0 | 0.00 | 0.00 | 0.00 | 62 | 1018.8 |
| 20260502023603 | 53 | 326 | 0.0 | 0.0 | 0.00 | 0.00 | 0.00 | 61 | 1018.9 |
| 20260502022131 | 53 | 326 | 0.0 | 0.0 | 0.00 | 0.00 | 0.00 | 60 | 1018.8 |
| 20260502021130 | 54 | 326 | 0.0 | 0.0 | 0.00 | 0.00 | 0.00 | 56 | 1018.7 |
| 20260502020131 | 54 | 326 | 0.0 | 0.0 | 0.00 | 0.00 | 0.00 | 54 | 1018.7 |
| 20260502015132 | 55 | 326 | 0.0 | 0.0 | 0.00 | 0.00 | 0.00 | 53 | 1018.6 |
| 20260502014129 | 56 | 326 | 0.0 | 0.0 | 0.00 | 0.00 | 0.00 | 54 | 1018.6 |